Weather Roundup
Issued by NWS Springfield, MO

Home | Current Version | Previous Version | Text Only | Print | Product List | Glossary On
Versions: 1 2 3 4 5 6 7 8 9 10 11 12 13 14 15 16 17 18 19 20 21 22 23 24 25 26 27 28 29 30 31 32 33 34 35 36 37 38 39 40 41 42 43 44 45 46 47 48 49 50
000
NZUS99 KSGF 180307
HRRSGF

HOURLY WEATHER
NATIONAL WEATHER SERVICE SPRINGFIELD MO
900 PM CST TUE JAN 17 2017

......SGF CWA......

CITY           SKY/WX    TMP DP  RH WIND       PRES   REMARKS
SPRINGFIELD    CLOUDY    37  35  92 NW3       30.17F
JOPLIN         CLOUDY    38  36  92 CALM      30.18F
WEST PLAINS    CLOUDY    40  36  86 NW7       30.16F
ROLLA          CLOUDY    37  35  92 W8        30.16S WCI  31
OSAGE BEACH    CLOUDY    38  35  89 W3        30.20S
BRANSON        CLOUDY    39  36  87 CALM      30.18S

......SURROUNDING SGF CWA......

CITY           SKY/WX    TMP DP  RH WIND       PRES   REMARKS
CHANUTE        CLEAR     33  31  92 S5        30.18R WCI  29
PARSONS        CLOUDY    36  33  89 CALM      30.18S
COFFEYVILLE    PTCLDY    34  33  96 E3        30.19S
EMPORIA        CLEAR     35  28  75 SW6       30.15S WCI  30
GROVE OK       CLOUDY    41  37  87 E3        30.21R
ROGERS AR      CLOUDY    38  36  92 CALM      30.18S
SILOAM SPRINGS CLOUDY    39  36  87 S5        30.19R
HARRISON AR    CLOUDY    38  36  92 NW6       30.16S WCI  33
NEAR YELLVILLE PTCLDY    37  34  87 CALM      30.16S

......KANSAS AND MISSOURI......

CITY           SKY/WX    TMP DP  RH WIND       PRES   REMARKS
KANSAS CTY INT CLEAR     28  26  92 S7        30.14S WCI  21
DOWNTOWN KC    CLEAR     31  30  96 CALM      30.16S
COLUMBIA       CLOUDY    38  36  92 W13       30.17R WCI  30
SEDALIA        CLOUDY    39  34  82 W7        30.19R WCI  34
ST JOSEPH      FOG       27  27 100 CALM      30.16R VSB 1/2
ST LOUIS       CLOUDY    42  36  79 W10       30.17R
SPIRIT OF STL  CLOUDY    41  37  86 W7        30.17R
KIRKSVILLE     CLOUDY    36  34  92 W6        30.13S WCI  31
WICHITA        CLOUDY    35  32  88 CALM      30.14S
TOPEKA         CLOUDY    31  28  89 S5        30.16R WCI  26
OLATHE         PTCLDY    31  31 100 S6        30.16R WCI  25

......TENNESSEE......

CITY           SKY/WX    TMP DP  RH WIND       PRES   REMARKS
MEMPHIS        CLOUDY    50  45  83 NW6       30.18S
NASHVILLE      CLOUDY    53  46  77 W6        30.14R

......ARKANSAS.......

CITY           SKY/WX    TMP DP  RH WIND       PRES   REMARKS
FAYETTEVILLE   CLOUDY    38  37  97 CALM      30.18R
FT SMITH       PTCLDY    42  37  82 CALM      30.18F
LITTLE ROCK    CLOUDY    48  42  80 N6        30.17S

......OKLAHOMA.......

CITY           SKY/WX    TMP DP  RH WIND       PRES   REMARKS
TULSA          CLOUDY    42  38  85 S7        30.20R
PONCA CITY     PTCLDY    40  33  76 CALM      30.18R
MCALESTER      MOCLDY    44  38  79 CALM      30.23R
OKLAHOMA CITY  CLOUDY    45  34  65 SE3       30.18R

......IOWA............

CITY           SKY/WX    TMP DP  RH WIND       PRES   REMARKS
DES MOINES     DRIZZLE   32  31  96 W9        30.10S FOG     WCI  24
QUAD CITIES    CLOUDY    34  32  92 W12       30.06R FOG     WCI  25

......ILLINOIS........

CITY           SKY/WX    TMP DP  RH WIND       PRES   REMARKS
QUINCY         CLOUDY    37  35  92 W7        30.12S FOG     WCI  32
CHICAGO        DRIZZLE   35  34  96 W10       29.98R WCI  27




USA.gov is the U.S. government's official web portal to all federal, state and local government web resources and services.